| time (UTC) | temp F | wind direction | speed MPH | gust MPH | rain 1hr in | rain 24hr in | rain mn in | humidity % | barometer mb |
| 20260504234453 | 58 | 2 | 6.0 | 8.0 | 0.00 | 0.00 | 0.00 | 38 | 1040.9 |
| 20260504233949 | 59 | 311 | 4.0 | 11.0 | 0.00 | 0.00 | 0.00 | 38 | 1040.8 |
| 20260504233445 | 59 | 321 | 5.0 | 9.0 | 0.00 | 0.00 | 0.00 | 37 | 1041.0 |
| 20260504232942 | 59 | 190 | 2.0 | 8.0 | 0.00 | 0.00 | 0.00 | 38 | 1040.9 |
| 20260504232439 | 59 | 309 | 6.0 | 11.0 | 0.00 | 0.00 | 0.00 | 36 | 1041.0 |
| 20260504231937 | 59 | 278 | 4.0 | 9.0 | 0.00 | 0.00 | 0.00 | 35 | 1041.0 |
| 20260504231433 | 60 | 234 | 6.0 | 7.0 | 0.00 | 0.00 | 0.00 | 35 | 1041.3 |
| 20260504230929 | 60 | 251 | 4.0 | 8.0 | 0.00 | 0.00 | 0.00 | 35 | 1041.0 |
| 20260504230426 | 60 | 320 | 5.0 | 14.0 | 0.00 | 0.00 | 0.00 | 36 | 1041.1 |
| 20260504225925 | 61 | 262 | 5.0 | 10.0 | 0.00 | 0.00 | 0.00 | 34 | 1041.0 |
| 20260504225421 | 61 | 327 | 2.0 | 4.0 | 0.00 | 0.00 | 0.00 | 35 | 1040.9 |
| 20260504224919 | 60 | 305 | 6.0 | 13.0 | 0.00 | 0.00 | 0.00 | 34 | 1041.0 |
| 20260504224415 | 61 | 288 | 9.0 | 14.0 | 0.00 | 0.00 | 0.00 | 34 | 1040.7 |
| 20260504223913 | 61 | 323 | 3.0 | 8.0 | 0.00 | 0.00 | 0.00 | 35 | 1040.7 |
| 20260504223408 | 61 | 198 | 5.0 | 8.0 | 0.00 | 0.00 | 0.00 | 34 | 1040.5 |
| 20260504222904 | 61 | 318 | 9.0 | 15.0 | 0.00 | 0.00 | 0.00 | 34 | 1040.5 |
| 20260504222401 | 61 | 240 | 9.0 | 13.0 | 0.00 | 0.00 | 0.00 | 34 | 1040.4 |
| 20260504221900 | 61 | 258 | 9.0 | 14.0 | 0.00 | 0.00 | 0.00 | 33 | 1040.3 |
| 20260504221356 | 61 | 278 | 10.0 | 14.0 | 0.00 | 0.00 | 0.00 | 34 | 1040.3 |
| 20260504220853 | 62 | 273 | 9.0 | 14.0 | 0.00 | 0.00 | 0.00 | 34 | 1040.3 |
| 20260504220350 | 62 | 335 | 6.0 | 16.0 | 0.00 | 0.00 | 0.00 | 33 | 1039.9 |
| 20260504215847 | 62 | 203 | 4.0 | 9.0 | 0.00 | 0.00 | 0.00 | 33 | 1040.0 |
| 20260504215343 | 62 | 322 | 7.0 | 13.0 | 0.00 | 0.00 | 0.00 | 33 | 1039.7 |
| 20260504214839 | 63 | 291 | 12.0 | 18.0 | 0.00 | 0.00 | 0.00 | 31 | 1039.7 |
| 20260504214337 | 63 | 203 | 6.0 | 9.0 | 0.00 | 0.00 | 0.00 | 30 | 1039.5 |
| 20260504213833 | 63 | 294 | 4.0 | 9.0 | 0.00 | 0.00 | 0.00 | 32 | 1039.6 |
| 20260504213329 | 63 | 292 | 6.0 | 16.0 | 0.00 | 0.00 | 0.00 | 31 | 1039.7 |
| 20260504212827 | 63 | 332 | 7.0 | 9.0 | 0.00 | 0.00 | 0.00 | 32 | 1039.5 |
| 20260504212323 | 63 | 291 | 6.0 | 10.0 | 0.00 | 0.00 | 0.00 | 33 | 1039.4 |
| 20260504211821 | 63 | 320 | 5.0 | 9.0 | 0.00 | 0.00 | 0.00 | 36 | 1039.5 |
| 20260504211316 | 63 | 266 | 6.0 | 10.0 | 0.00 | 0.00 | 0.00 | 38 | 1039.3 |
| 20260504210814 | 64 | 339 | 4.0 | 7.0 | 0.00 | 0.00 | 0.00 | 36 | 1039.4 |
| 20260504210311 | 65 | 322 | 4.0 | 8.0 | 0.00 | 0.00 | 0.00 | 38 | 1039.4 |
| 20260504205808 | 65 | 317 | 4.0 | 8.0 | 0.00 | 0.00 | 0.00 | 37 | 1039.5 |
| 20260504205306 | 65 | 285 | 4.0 | 6.0 | 0.00 | 0.00 | 0.00 | 37 | 1039.6 |
| 20260504204804 | 65 | 324 | 4.0 | 6.0 | 0.00 | 0.00 | 0.00 | 38 | 1039.4 |
| 20260504204302 | 65 | 357 | 1.0 | 7.0 | 0.00 | 0.00 | 0.00 | 35 | 1039.4 |
| 20260504203801 | 65 | 304 | 4.0 | 10.0 | 0.00 | 0.00 | 0.00 | 38 | 1039.4 |
| 20260504203258 | 66 | 313 | 4.0 | 10.0 | 0.00 | 0.00 | 0.00 | 35 | 1039.3 |
| 20260504202758 | 66 | 42 | 3.0 | 9.0 | 0.00 | 0.00 | 0.00 | 34 | 1039.2 |
| 20260504202255 | 67 | 344 | 4.0 | 11.0 | 0.00 | 0.00 | 0.00 | 35 | 1039.1 |
| 20260504201752 | 68 | 295 | 5.0 | 9.0 | 0.00 | 0.00 | 0.00 | 33 | 1039.1 |
| 20260504201249 | 67 | 304 | 4.0 | 8.0 | 0.00 | 0.00 | 0.00 | 33 | 1039.0 |
| 20260504200748 | 67 | 249 | 4.0 | 7.0 | 0.00 | 0.00 | 0.00 | 35 | 1038.9 |
| 20260504200243 | 67 | 323 | 5.0 | 10.0 | 0.00 | 0.00 | 0.00 | 34 | 1039.0 |
| 20260504195740 | 67 | 271 | 7.0 | 11.0 | 0.00 | 0.00 | 0.00 | 32 | 1039.0 |
| 20260504195236 | 68 | 332 | 8.0 | 16.0 | 0.00 | 0.00 | 0.00 | 34 | 1039.1 |
| 20260504194733 | 67 | 208 | 4.0 | 11.0 | 0.00 | 0.00 | 0.00 | 33 | 1038.9 |
| 20260504194229 | 67 | 284 | 5.0 | 17.0 | 0.00 | 0.00 | 0.00 | 33 | 1038.9 |
| 20260504193726 | 67 | 339 | 6.0 | 8.0 | 0.00 | 0.00 | 0.00 | 34 | 1038.9 |
| 20260504193224 | 67 | 255 | 10.0 | 11.0 | 0.00 | 0.00 | 0.00 | 32 | 1038.8 |
| 20260504192722 | 68 | 254 | 3.0 | 10.0 | 0.00 | 0.00 | 0.00 | 33 | 1038.7 |
| 20260504192220 | 68 | 313 | 3.0 | 9.0 | 0.00 | 0.00 | 0.00 | 34 | 1038.9 |
| 20260504191718 | 67 | 344 | 5.0 | 6.0 | 0.00 | 0.00 | 0.00 | 34 | 1038.7 |
| 20260504191215 | 66 | 319 | 4.0 | 10.0 | 0.00 | 0.00 | 0.00 | 35 | 1038.7 |
| 20260504190710 | 67 | 302 | 8.0 | 9.0 | 0.00 | 0.00 | 0.00 | 35 | 1038.7 |
| 20260504190206 | 68 | 280 | 3.0 | 11.0 | 0.00 | 0.00 | 0.00 | 36 | 1038.5 |
| 20260504185702 | 67 | 355 | 4.0 | 7.0 | 0.00 | 0.00 | 0.00 | 35 | 1038.5 |
| 20260504185159 | 67 | 300 | 6.0 | 16.0 | 0.00 | 0.00 | 0.00 | 35 | 1038.3 |
| 20260504184655 | 68 | 310 | 4.0 | 10.0 | 0.00 | 0.00 | 0.00 | 35 | 1038.3 |
| 20260504184150 | 69 | 298 | 8.0 | 10.0 | 0.00 | 0.00 | 0.00 | 33 | 1038.3 |
| 20260504183647 | 69 | 339 | 3.0 | 6.0 | 0.00 | 0.00 | 0.00 | 34 | 1038.1 |
| 20260504183144 | 69 | 247 | 5.0 | 9.0 | 0.00 | 0.00 | 0.00 | 34 | 1038.2 |
| 20260504182642 | 70 | 252 | 3.0 | 6.0 | 0.00 | 0.00 | 0.00 | 35 | 1038.0 |
| 20260504182139 | 70 | 318 | 3.0 | 9.0 | 0.00 | 0.00 | 0.00 | 33 | 1038.1 |
| 20260504181637 | 69 | 298 | 4.0 | 6.0 | 0.00 | 0.00 | 0.00 | 36 | 1038.2 |
| 20260504181134 | 69 | 322 | 5.0 | 9.0 | 0.00 | 0.00 | 0.00 | 34 | 1038.1 |
| 20260504180634 | 69 | 270 | 9.0 | 10.0 | 0.00 | 0.00 | 0.00 | 32 | 1038.2 |
| 20260504180132 | 69 | 319 | 4.0 | 13.0 | 0.00 | 0.00 | 0.00 | 35 | 1038.1 |
| 20260504175629 | 69 | 154 | 5.0 | 9.0 | 0.00 | 0.00 | 0.00 | 34 | 1038.0 |
| 20260504175125 | 69 | 251 | 4.0 | 11.0 | 0.00 | 0.00 | 0.00 | 34 | 1037.8 |
| 20260504174624 | 69 | 292 | 4.0 | 9.0 | 0.00 | 0.00 | 0.00 | 37 | 1037.9 |
| 20260504174120 | 70 | 196 | 2.0 | 3.0 | 0.00 | 0.00 | 0.00 | 38 | 1037.9 |
| 20260504173618 | 69 | 311 | 2.0 | 4.0 | 0.00 | 0.00 | 0.00 | 36 | 1037.9 |
| 20260504173115 | 70 | 291 | 3.0 | 6.0 | 0.00 | 0.00 | 0.00 | 40 | 1037.8 |
| 20260504172611 | 69 | 308 | 3.0 | 7.0 | 0.00 | 0.00 | 0.00 | 38 | 1037.6 |
| 20260504172107 | 69 | 310 | 2.0 | 9.0 | 0.00 | 0.00 | 0.00 | 37 | 1037.7 |
| 20260504171603 | 70 | 323 | 6.0 | 9.0 | 0.00 | 0.00 | 0.00 | 40 | 1037.7 |
| 20260504171101 | 69 | 320 | 3.0 | 7.0 | 0.00 | 0.00 | 0.00 | 43 | 1037.6 |
| 20260504170556 | 69 | 274 | 3.0 | 8.0 | 0.00 | 0.00 | 0.00 | 42 | 1037.7 |
| 20260504150941 | 69 | 284 | 9.0 | 15.0 | 0.00 | 0.00 | 0.00 | 38 | 1037.1 |
| 20260504150438 | 69 | 260 | 5.0 | 8.0 | 0.00 | 0.00 | 0.00 | 39 | 1036.9 |
| 20260504140903 | 68 | 208 | 11.0 | 15.0 | 0.00 | 0.00 | 0.00 | 39 | 1036.7 |
| 20260504140359 | 67 | 198 | 6.0 | 16.0 | 0.00 | 0.00 | 0.00 | 42 | 1036.8 |
| 20260504130324 | 62 | 249 | 6.0 | 7.0 | 0.00 | 0.00 | 0.00 | 45 | 1037.5 |
| 20260504120248 | 55 | 240 | 3.0 | 8.0 | 0.00 | 0.00 | 0.00 | 53 | 1037.5 |
| 20260504110715 | 51 | 201 | 3.0 | 4.0 | 0.00 | 0.00 | 0.00 | 59 | 1037.9 |
| 20260504110212 | 51 | 220 | 2.0 | 3.0 | 0.00 | 0.00 | 0.00 | 59 | 1038.1 |
| 20260504100131 | 51 | 199 | 2.0 | 4.0 | 0.00 | 0.00 | 0.00 | 58 | 1038.5 |
| 20260504081524 | 48 | 169 | 0.0 | 0.0 | 0.00 | 0.00 | 0.00 | 62 | 1039.6 |
| 20260504081019 | 48 | 167 | 0.0 | 0.0 | 0.00 | 0.00 | 0.00 | 62 | 1039.9 |
| 20260504080516 | 48 | 165 | 0.0 | 0.0 | 0.00 | 0.00 | 0.00 | 61 | 1040.1 |
| 20260504050328 | 50 | 171 | 0.0 | 0.0 | 0.00 | 0.00 | 0.00 | 59 | 1042.6 |
| 20260504045826 | 51 | 190 | 0.0 | 0.0 | 0.00 | 0.00 | 0.00 | 59 | 1042.5 |
| 20260504045320 | 51 | 186 | 0.0 | 0.0 | 0.00 | 0.00 | 0.00 | 58 | 1042.5 |
| 20260504044818 | 51 | 177 | 0.0 | 0.0 | 0.00 | 0.00 | 0.00 | 58 | 1042.7 |
| 20260504044315 | 52 | 180 | 0.0 | 0.0 | 0.00 | 0.00 | 0.00 | 57 | 1042.8 |
| 20260504043812 | 51 | 167 | 0.0 | 0.0 | 0.00 | 0.00 | 0.00 | 57 | 1042.8 |
| 20260504043309 | 50 | 177 | 0.0 | 0.0 | 0.00 | 0.00 | 0.00 | 59 | 1042.7 |
| 20260504042807 | 50 | 177 | 0.0 | 0.0 | 0.00 | 0.00 | 0.00 | 60 | 1042.8 |
| 20260504042304 | 50 | 175 | 0.0 | 0.0 | 0.00 | 0.00 | 0.00 | 60 | 1042.9 |
| 20260504041759 | 50 | 182 | 0.0 | 0.0 | 0.00 | 0.00 | 0.00 | 62 | 1042.9 |
| 20260504041255 | 50 | 181 | 0.0 | 0.0 | 0.00 | 0.00 | 0.00 | 62 | 1043.0 |
| 20260504040752 | 51 | 182 | 0.0 | 0.0 | 0.00 | 0.00 | 0.00 | 62 | 1043.3 |
| 20260504040249 | 51 | 181 | 0.0 | 0.0 | 0.00 | 0.00 | 0.00 | 58 | 1043.6 |
| 20260504035745 | 52 | 172 | 0.0 | 0.0 | 0.00 | 0.00 | 0.00 | 56 | 1043.4 |
| 20260504035242 | 52 | 184 | 0.0 | 0.0 | 0.00 | 0.00 | 0.00 | 56 | 1043.6 |
| 20260504034740 | 52 | 174 | 0.0 | 0.0 | 0.00 | 0.00 | 0.00 | 56 | 1043.8 |
| 20260504034237 | 50 | 175 | 0.0 | 0.0 | 0.00 | 0.00 | 0.00 | 59 | 1043.6 |
| 20260504033734 | 51 | 175 | 0.0 | 0.0 | 0.00 | 0.00 | 0.00 | 59 | 1043.7 |
| 20260504033232 | 52 | 175 | 0.0 | 0.0 | 0.00 | 0.00 | 0.00 | 56 | 1043.8 |
| 20260504032728 | 53 | 175 | 0.0 | 0.0 | 0.00 | 0.00 | 0.00 | 53 | 1043.6 |
| 20260504032226 | 53 | 181 | 0.0 | 0.0 | 0.00 | 0.00 | 0.00 | 52 | 1043.8 |
| 20260504031722 | 54 | 184 | 0.0 | 0.0 | 0.00 | 0.00 | 0.00 | 52 | 1044.1 |
| 20260504031220 | 53 | 183 | 0.0 | 0.0 | 0.00 | 0.00 | 0.00 | 52 | 1043.9 |
| 20260504030715 | 54 | 175 | 0.0 | 0.0 | 0.00 | 0.00 | 0.00 | 51 | 1043.8 |
| 20260504030213 | 54 | 178 | 0.0 | 0.0 | 0.00 | 0.00 | 0.00 | 51 | 1044.0 |
| 20260504025709 | 53 | 176 | 0.0 | 0.0 | 0.00 | 0.00 | 0.00 | 53 | 1044.0 |
| 20260504025206 | 54 | 177 | 0.0 | 0.0 | 0.00 | 0.00 | 0.00 | 52 | 1044.0 |
| 20260504024703 | 54 | 177 | 0.0 | 0.0 | 0.00 | 0.00 | 0.00 | 51 | 1043.7 |
| 20260504024200 | 56 | 177 | 0.0 | 0.0 | 0.00 | 0.00 | 0.00 | 51 | 1043.8 |
| 20260504023656 | 55 | 180 | 0.0 | 0.0 | 0.00 | 0.00 | 0.00 | 49 | 1043.9 |
| 20260504023152 | 57 | 175 | 0.0 | 0.0 | 0.00 | 0.00 | 0.00 | 46 | 1044.0 |
| 20260504022649 | 58 | 175 | 0.0 | 0.0 | 0.00 | 0.00 | 0.00 | 45 | 1043.9 |
| 20260504022144 | 58 | 164 | 0.0 | 0.0 | 0.00 | 0.00 | 0.00 | 44 | 1043.8 |
| 20260504021643 | 59 | 174 | 0.0 | 1.0 | 0.00 | 0.00 | 0.00 | 44 | 1043.9 |
| 20260504021139 | 60 | 172 | 0.0 | 1.0 | 0.00 | 0.00 | 0.00 | 42 | 1043.8 |
| 20260504020636 | 60 | 169 | 1.0 | 1.0 | 0.00 | 0.00 | 0.00 | 41 | 1043.8 |
| 20260504020132 | 59 | 178 | 0.0 | 0.0 | 0.00 | 0.00 | 0.00 | 42 | 1043.9 |
| 20260504015629 | 60 | 175 | 0.0 | 0.0 | 0.00 | 0.00 | 0.00 | 40 | 1044.0 |
| 20260504015125 | 61 | 182 | 0.0 | 0.0 | 0.00 | 0.00 | 0.00 | 38 | 1043.8 |
| 20260504014621 | 62 | 185 | 0.0 | 1.0 | 0.00 | 0.00 | 0.00 | 37 | 1043.8 |
| 20260504014119 | 62 | 218 | 1.0 | 1.0 | 0.00 | 0.00 | 0.00 | 38 | 1043.9 |
| 20260504013616 | 63 | 180 | 0.0 | 1.0 | 0.00 | 0.00 | 0.00 | 36 | 1043.9 |
| 20260504013113 | 63 | 189 | 0.0 | 1.0 | 0.00 | 0.00 | 0.00 | 37 | 1043.9 |
| 20260504012610 | 63 | 196 | 1.0 | 2.0 | 0.00 | 0.00 | 0.00 | 35 | 1043.9 |
| 20260504012108 | 64 | 205 | 1.0 | 2.0 | 0.00 | 0.00 | 0.00 | 35 | 1043.8 |
| 20260504011605 | 65 | 268 | 1.0 | 2.0 | 0.00 | 0.00 | 0.00 | 34 | 1043.8 |
| 20260504011101 | 66 | 201 | 2.0 | 3.0 | 0.00 | 0.00 | 0.00 | 34 | 1043.8 |
| 20260504010556 | 66 | 258 | 1.0 | 3.0 | 0.00 | 0.00 | 0.00 | 33 | 1043.8 |
| 20260504010053 | 66 | 223 | 2.0 | 3.0 | 0.00 | 0.00 | 0.00 | 33 | 1043.8 |
| 20260504005549 | 66 | 222 | 2.0 | 3.0 | 0.00 | 0.00 | 0.00 | 32 | 1043.7 |
| 20260504005047 | 67 | 254 | 2.0 | 4.0 | 0.00 | 0.00 | 0.00 | 33 | 1043.8 |
| 20260504004545 | 67 | 273 | 2.0 | 6.0 | 0.00 | 0.00 | 0.00 | 31 | 1043.8 |
| 20260504004042 | 68 | 268 | 3.0 | 4.0 | 0.00 | 0.00 | 0.00 | 32 | 1043.8 |
| 20260504003537 | 68 | 259 | 2.0 | 2.0 | 0.00 | 0.00 | 0.00 | 31 | 1044.0 |
| 20260504003034 | 68 | 240 | 2.0 | 4.0 | 0.00 | 0.00 | 0.00 | 31 | 1043.9 |
| 20260504002531 | 68 | 253 | 2.0 | 4.0 | 0.00 | 0.00 | 0.00 | 31 | 1043.9 |
| 20260504002029 | 69 | 278 | 5.0 | 8.0 | 0.00 | 0.00 | 0.00 | 30 | 1043.9 |
| 20260504001527 | 69 | 285 | 4.0 | 6.0 | 0.00 | 0.00 | 0.00 | 32 | 1043.9 |
| 20260504001022 | 69 | 288 | 4.0 | 6.0 | 0.00 | 0.00 | 0.00 | 32 | 1043.9 |
| 20260504000520 | 69 | 256 | 3.0 | 4.0 | 0.00 | 0.00 | 0.00 | 31 | 1044.0 |
| 20260504000017 | 69 | 259 | 1.0 | 7.0 | 0.00 | 0.00 | 0.00 | 32 | 1043.9 |
| 20260503235515 | 70 | 218 | 3.0 | 6.0 | 0.00 | 0.00 | 0.00 | 30 | 1043.9 |
| 20260503235012 | 70 | 313 | 4.0 | 7.0 | 0.00 | 0.00 | 0.00 | 30 | 1043.8 |